Cloud_Cover
100 100 100 100 97 100 100 100 82 100 80 23 26 2 2 0 0 0 0 5 5 5 5 61 72 67 63 5 5 12 37 32 5 40 1 1 0 0 0 0 0 0 0 0 0
100 100 100 100 100 100 100 100 87 99 40 69 19 0 0 5 0 0 0 0 5 5 4 22 97 72 74 79 12 5 100 11 10 3 18 6 4 0 0 0 0 0 0 0 0
100 100 100 100 100 100 100 100 100 79 31 19 21 0 0 17 0 0 0 0 0 0 5 5 48 14 96 31 5 9 17 87 70 27 27 92 5 0 4 5 4 4 0 0 0
100 100 100 100 100 100 100 100 100 100 39 31 13 0 0 0 0 0 0 0 0 0 5 5 5 5 8 33 85 19 4 34 67 22 79 100 83 5 5 4 5 5 5 4 0
100 100 100 100 100 100 100 100 100 100 44 31 2 0 6 0 0 0 0 0 0 0 0 4 5 5 0 5 55 68 5 5 27 32 15 50 100 100 5 5 5 5 20 13 3
100 100 100 100 100 100 100 100 100 91 23 6 0 26 0 0 0 0 0 0 0 0 0 0 0 1 0 4 29 97 86 31 5 4 21 5 67 100 68 5 22 18 4 5 5
100 100 100 100 100 100 100 100 16 1 0 0 0 0 0 0 0 0 0 0 0 0 0 0 0 0 0 5 12 55 62 74 18 5 5 21 5 100 100 87 63 6 7 5 5
100 84 100 100 100 100 100 5 8 0 0 0 0 0 0 0 0 0 0 0 0 0 0 0 0 0 0 5 68 18 92 100 93 38 5 4 85 2 18 6 3 5 5 5 5
100 100 100 100 98 100 16 0 0 0 0 0 0 0 0 0 0 0 0 0 0 0 0 0 0 0 0 38 83 62 96 96 50 47 5 2 41 5 13 7 6 3 5 4 5
100 100 100 100 100 32 0 0 0 12 0 0 0 0 0 0 0 0 0 0 0 0 0 0 0 0 0 23 100 100 89 85 100 31 5 5 5 2 5 6 5 5 5 5 5
100 100 100 100 100 0 16 0 0 0 0 0 0 0 0 0 0 0 0 0 0 0 0 0 0 0 0 0 66 97 52 99 73 83 90 80 5 5 5 5 5 3 5 5 5
100 100 100 100 42 0 9 0 0 0 0 0 0 0 0 0 0 0 0 0 0 0 0 0 0 0 0 0 4 5 5 54 93 5 35 50 57 5 5 5 4 5 5 4 4
100 100 100 89 12 34 0 0 0 0 0 0 0 0 0 0 0 0 0 0 0 0 0 0 0 0 0 0 0 0 21 3 5 4 5 45 24 5 5 5 5 5 5 3 1
100 100 100 93 47 0 0 0 0 0 0 0 0 0 0 0 0 0 0 0 0 0 0 0 0 0 0 0 0 0 11 7 61 4 76 5 32 13 75 100 3 5 5 4 0
100 100 100 96 5 5 5 5 2 0 0 0 0 0 0 0 0 0 0 0 0 0 0 0 0 0 0 0 0 0 5 6 5 3 5 17 6 93 94 18 52 48 5 6 0
100 100 97 30 5 5 5 5 5 5 5 4 0 0 0 0 0 0 0 0 0 0 0 0 0 0 0 0 0 0 0 2 3 4 4 5 78 99 93 32 96 94 98 48 66
50 85 57 5 5 5 5 5 5 5 5 5 5 5 0 0 0 0 0 0 0 0 0 0 0 0 0 0 0 0 0 1 5 5 5 5 2 91 100 82 19 82 88 50 100
34 47 15 5 5 4 4 5 5 5 5 5 4 1 0 0 0 0 0 0 0 0 0 0 0 0 0 0 0 0 0 0 4 5 6 48 0 2 64 100 54 97 46 34 74
30 2 0 0 0 0 0 0 0 0 0 0 0 0 0 0 0 0 0 0 0 0 0 0 0 0 0 0 0 0 0 0 0 0 0 19 2 0 0 15 100 83 79 100 100
0 0 0 0 0 0 0 0 0 0 0 0 0 0 0 0 0 5 5 5 3 0 0 0 0 0 0 0 0 0 0 0 0 0 0 0 0 1 0 0 5 51 98 100 100
0 0 0 0 0 0 0 0 0 0 0 0 0 0 0 0 0 1 5 5 5 5 5 0 3 2 0 0 0 0 0 0 0 0 0 0 0 0 0 0 0 6 82 86 80
0 0 0 0 0 0 0 0 0 0 0 0 0 0 0 0 0 0 0 0 4 0 0 2 0 3 5 5 5 0 0 0 3 0 0 0 0 0 0 0 0 0 93 12 7
0 0 0 0 0 0 0 0 0 0 0 0 0 0 0 0 0 0 0 0 0 0 0 0 0 0 5 4 0 5 5 5 5 5 5 0 0 0 0 0 0 0 0 3 32
0 0 0 0 0 0 0 0 0 0 0 0 0 0 0 0 0 0 0 0 0 0 0 0 0 0 0 0 1 5 5 5 5 5 5 5 1 0 0 0 0 0 25 66 59
4 4 5 5 3 0 0 0 0 0 0 0 0 0 0 0 0 0 0 0 0 0 0 0 0 0 0 0 0 1 5 5 5 5 5 5 5 0 0 0 0 6 78 100 67
5 0 1 0 0 0 0 0 0 0 1 0 0 2 0 0 0 0 0 0 0 0 0 0 0 0 0 0 0 0 0 0 0 0 0 0 0 0 0 0 0 78 46 64 67
0 1 0 0 0 0 0 4 4 3 0 10 9 23 28 4 0 0 0 3 5 0 0 0 0 0 0 0 0 0 0 0 0 0 0 0 0 0 0 0 0 100 94 94 76